Weather in Palo Alto

United States     37°25′39″N   122°07′34″W
temp.,
°C
wind,
m/s
gust,
m/s
humid.,
%
clouds,
%
prec.,
mm/h
press.,
hPa
HPBL,
m
23 may, mon
mon2323:00+9ssw339183 0.0 101774
02:00+9sw33915 0.0 101652
05:00+9sw22905 0.0 101639
08:00+13wsw126781 0.0 1016106
11:00+19nw33455 0.0 1015332
14:00+22wnw4537100 0.0 1014441
17:00+19w454693 0.0 1012248
20:00+13sw347213 0.0 1012110
24 may, tue
tue2423:00+10sw338911 0.0 101258
02:00+10sw22907 0.0 101135
05:00+11wsw11815 0.0 101112
08:00+16n11625 0.0 101174
11:00+20n224638 0.0 1011303
14:00+24nnw343322 0.0 1009524
17:00+25wnw45311 0.0 1008336
20:00+18wsw22480 0.0 100835
25 may, wed
wed2523:00+15wsw22530 0.0 100920
02:00+15w12515 0.0 100814
05:00+15wnw01525 0.0 100811
08:00+19wnw114585 0.0 100972
11:00+24nw3238100 0.0 1009367
14:00+25wnw443739 0.0 1009424
17:00+23w343933 0.0 1008277
20:00+17wsw336135 0.0 100960
26 may, thu
thu2623:00+13sw22740 0.0 101048
02:00+12wsw22780 0.0 101048
05:00+11sw228472 0.0 101135
08:00+14wsw2374100 0.0 1012197
11:00+19wnw3356100 0.0 1012384
14:00+19w3452100 0.0 1013353
17:00+17wsw3458100 0.0 1013208
20:00+14sw2265100 0.0 101468
27 may, fri
fri2723:00+12sw337659 0.0 101542
02:00+12sw2281100 0.0 101537
05:00+11sw2285100 0.0 101531
08:00+14wsw2269100 0.0 1016126
11:00+20wnw3543100 0.0 1016419
14:00+20wnw5839100 0.0 1016500
17:00+18wnw5845100 0.0 1016426
20:00+14w3462100 0.0 1016120